Location: Andrest
(43.3200°N, 0.0641°E)
Time: 22:09:32
(UTC+00:00)

CZ-4 R/B - Pass Details

Date: 01 December 2020
Orbit: 533 x 597 km, 97.7° (Epoch: 19 January)

Event Time Altitude Azimuth Distance (km) Brightness Sun altitude
Rises 17:35:10 0° 131° (SE) 2,719 4.6 -12.5°
Enters shadow 17:35:19 - 131° (SE) 2,662 4.5 -12.5°
Exits shadow 17:41:19 20° 52° (NE) 1,334 2.7 -13.5°
Drops below altitude 10° 17:43:43 10° 17° (NNE) 1,882 3.7 -13.9°
Sets 17:46:17 0° 2° (N) 2,798 4.7 -14.4°
